Draughon Miller Central Texas Regional Airport
KTPL : now visible

Airfield :











YOU CAN JOIN US ON...

 
LOGIN :

Register | Disclaimer

   EN    FR    IT 

 









Legend :    VFR   Marginal VFR   IFR   Intensive IFR   Very Intensive IFR
Visi :
Ceiling :
>= 8 km
>= 3000ft
5 to 8 km
1000 to 3000 ft
1500m to 5 km
500 to 1000 ft
800 to 1500m
200 to 500 ft
< 800m
< 200 ft
Symbols :   Thunderstorms  Fog  Heavy snow  Heavy precipitations  Wind > 20 kt






- Airport Elevation : 682 ft
- IATA code : TPL


KTPL - Draughon Miller Central Texas Regional

CURRENT METAR :
  • 280751Z AUTO 24004KT 8SM -RA OVC007 13/13 A2996 RMK AO2 RAB09 SLP139 P0001 T01280128

EXPIRED METARs :
  • 280701Z AUTO 19007KT 8SM BKN007 OVC012 12/12 A2991 RMK AO2 CIG 007V010 PRESRR
  • 280651Z AUTO 14013KT 8SM BKN012 OVC060 12/12 A2987 RMK AO2 PK WND 13027/0631 SLP108 T01220122
  • 280637Z AUTO 13018G26KT 6SM BR SCT012 BKN042 OVC085 12/12 A2985 RMK AO2 PK WND 13027/0631
  • 280551Z AUTO 16014KT 6SM BR BKN006 OVC011 12/12 A2993 RMK AO2 RAB09E37 CIG 005V010 SLP130 P0001 60001 T01220122 10128 20117 401720039 53001
  • 280451Z AUTO 16008KT 6SM BR BKN008 OVC110 12/12 A2993 RMK AO2 SLP130 T01220117

TAF N/A



MET'MAP, your aeronautical weather chart ! - Copyright ORBIFLY December 2007 - Disclaimer

ORBIFLY MET'MAP TEAM :

Programming & Development : Alexandra Zaïnal
Concept & original design : Baudouin d'Aumeries
Assistance for programming : Marc-Olivier Méhu
Technical & hardware support : Manuel Goepfert

Contact : metmap@orbifly.com




SOURCES & CREDITS :

   NOAA       Earth
Advisory